^^
Saratoga-Weather Station Historical Data
Daily Summary for May 11, 2020 Units:  Metric    English   Both
Daily Weekly Monthly Yearly Custom
  High: Low: Average:
Temperature: 36.7 °C 22.3 °C 28.9 °C
Dew Point: 19 °C 14.5 °C 17.1 °C
Humidity: 73% 28% 51%
Wind Speed: 13km/h 0km/h 1.9km/h
Wind Gust: 14.5km/h - -
Wind- - South
Pressure: 1013.2 hPa 1010.2 hPa -
Precipitation: 0.0 mm    
Historical Graphs
 
 
Tabular Data for May 11, 2020
Time Temperature Dew Point Pressure Wind Wind Speed Wind Gust Humidity Rainfall Rate (Hourly) solar
00:00 25.4 °C 16.8 °C 1011.9 hPa SW 1.4 km/h 1.6 km/h 59% 0.0 mm 0 W/m2
00:05 25.3 °C 17 °C 1011.9 hPa Calm   1.6 km/h 60% 0.0 mm 0 W/m2
00:10 25.2 °C 16.9 °C 1011.9 hPa Calm     60% 0.0 mm 0 W/m2
00:15 25.2 °C 16.9 °C 1011.9 hPa Calm   1.6 km/h 60% 0.0 mm 0 W/m2
00:20 25.1 °C 16.8 °C 1012.2 hPa Calm   1.6 km/h 60% 0.0 mm 0 W/m2
00:25 25.1 °C 17 °C 1011.9 hPa Calm     61% 0.0 mm 0 W/m2
00:30 24.9 °C 16.9 °C 1011.9 hPa SW 1.4 km/h 3.2 km/h 61% 0.0 mm 0 W/m2
00:35 24.9 °C 16.9 °C 1011.9 hPa Calm     61% 0.0 mm 0 W/m2
00:40 24.8 °C 17 °C 1011.9 hPa Calm   1.6 km/h 62% 0.0 mm 0 W/m2
00:45 24.8 °C 17 °C 1011.9 hPa Calm     62% 0.0 mm 0 W/m2
00:50 24.7 °C 16.9 °C 1011.9 hPa SW 1.4 km/h 3.2 km/h 62% 0.0 mm 0 W/m2
00:55 24.6 °C 17.1 °C 1011.9 hPa SW 1.4 km/h 3.2 km/h 63% 0.0 mm 0 W/m2
01:00 24.6 °C 17.1 °C 1011.9 hPa SW 1.4 km/h 1.6 km/h 63% 0.0 mm 0 W/m2
01:06 24.4 °C 16.9 °C 1011.9 hPa Calm     63% 0.0 mm 0 W/m2
01:11 24.4 °C 16.9 °C 1011.9 hPa SW 1.4 km/h 3.2 km/h 63% 0.0 mm 0 W/m2
01:16 24.4 °C 16.9 °C 1011.9 hPa Calm     63% 0.0 mm 0 W/m2
01:21 24.3 °C 16.8 °C 1011.9 hPa Calm   1.6 km/h 63% 0.0 mm 0 W/m2
01:26 24.3 °C 16.8 °C 1011.9 hPa Calm     63% 0.0 mm 0 W/m2
01:31 24.2 °C 16.7 °C 1011.9 hPa Calm     63% 0.0 mm 0 W/m2
01:36 24.2 °C 16.7 °C 1011.9 hPa Calm     63% 0.0 mm 0 W/m2
01:41 24.2 °C 16.7 °C 1011.9 hPa Calm     63% 0.0 mm 0 W/m2
01:46 24.1 °C 16.6 °C 1011.9 hPa Calm     63% 0.0 mm 0 W/m2
01:51 24.1 °C 16.6 °C 1011.9 hPa Calm     63% 0.0 mm 0 W/m2
01:56 24.1 °C 16.9 °C 1011.9 hPa Calm     64% 0.0 mm 0 W/m2
02:01 24.1 °C 16.6 °C 1011.9 hPa Calm     63% 0.0 mm 0 W/m2
02:06 24.1 °C 16.9 °C 1011.9 hPa Calm     64% 0.0 mm 0 W/m2
02:11 24.1 °C 16.6 °C 1011.9 hPa Calm     63% 0.0 mm 0 W/m2
02:16 24.1 °C 16.9 °C 1011.9 hPa Calm     64% 0.0 mm 0 W/m2
02:21 24.2 °C 17 °C 1011.9 hPa Calm   1.6 km/h 64% 0.0 mm 0 W/m2
02:26 24.2 °C 16.7 °C 1011.9 hPa Calm     63% 0.0 mm 0 W/m2
02:31 24.2 °C 16.7 °C 1011.9 hPa Calm   1.6 km/h 63% 0.0 mm 0 W/m2
02:36 24.3 °C 17.1 °C 1011.9 hPa Calm     64% 0.0 mm 0 W/m2
02:41 24.2 °C 16.7 °C 1011.9 hPa Calm     63% 0.0 mm 0 W/m2
02:46 24.2 °C 16.7 °C 1011.9 hPa Calm     63% 0.0 mm 0 W/m2
02:51 24.2 °C 17 °C 1011.9 hPa Calm     64% 0.0 mm 0 W/m2
02:56 24.1 °C 16.9 °C 1011.9 hPa Calm     64% 0.0 mm 0 W/m2
03:01 24.1 °C 16.9 °C 1011.9 hPa Calm     64% 0.0 mm 0 W/m2
03:06 24 °C 17 °C 1011.9 hPa Calm     65% 0.0 mm 0 W/m2
03:11 23.9 °C 16.9 °C 1011.9 hPa Calm     65% 0.0 mm 0 W/m2
03:16 23.9 °C 16.9 °C 1011.9 hPa Calm     65% 0.0 mm 0 W/m2
03:21 23.8 °C 16.8 °C 1011.5 hPa Calm     65% 0.0 mm 0 W/m2
03:26 23.8 °C 16.8 °C 1011.5 hPa Calm     65% 0.0 mm 0 W/m2
03:31 23.7 °C 16.7 °C 1011.5 hPa Calm     65% 0.0 mm 0 W/m2
03:36 23.7 °C 16.7 °C 1011.5 hPa Calm     65% 0.0 mm 0 W/m2
03:41 23.6 °C 16.9 °C 1011.5 hPa Calm     66% 0.0 mm 0 W/m2
03:47 23.6 °C 16.9 °C 1011.5 hPa Calm     66% 0.0 mm 0 W/m2
03:52 23.6 °C 16.9 °C 1011.5 hPa SW 1.4 km/h 1.6 km/h 66% 0.0 mm 0 W/m2
03:57 23.7 °C 16.7 °C 1011.5 hPa SW 1.4 km/h 3.2 km/h 65% 0.0 mm 0 W/m2
04:02 23.7 °C 17 °C 1011.5 hPa Calm     66% 0.0 mm 0 W/m2
04:07 23.8 °C 17.1 °C 1011.5 hPa Calm     66% 0.0 mm 0 W/m2
04:12 23.8 °C 17.1 °C 1011.5 hPa Calm     66% 0.0 mm 0 W/m2
04:17 23.8 °C 17.1 °C 1011.5 hPa Calm     66% 0.0 mm 0 W/m2
04:22 23.7 °C 17 °C 1011.5 hPa Calm     66% 0.0 mm 0 W/m2
04:27 23.7 °C 16.7 °C 1011.5 hPa SW 1.4 km/h 1.6 km/h 65% 0.0 mm 0 W/m2
04:32 23.8 °C 16.8 °C 1011.5 hPa East 1.4 km/h 1.6 km/h 65% 0.0 mm 0 W/m2
04:37 23.9 °C 16.9 °C 1011.5 hPa East 1.4 km/h 1.6 km/h 65% 0.0 mm 0 W/m2
04:42 23.9 °C 16.9 °C 1011.5 hPa Calm     65% 0.0 mm 0 W/m2
04:47 23.8 °C 17.1 °C 1011.5 hPa Calm     66% 0.0 mm 0 W/m2
04:52 23.8 °C 17.1 °C 1011.5 hPa Calm     66% 0.0 mm 0 W/m2
04:57 23.7 °C 17 °C 1011.5 hPa Calm     66% 0.0 mm 0 W/m2
05:03 23.7 °C 17 °C 1011.5 hPa Calm     66% 0.0 mm 0 W/m2
05:08 23.6 °C 17.1 °C 1011.9 hPa Calm   1.6 km/h 67% 0.0 mm 0 W/m2
05:13 23.5 °C 17 °C 1011.5 hPa Calm     67% 0.0 mm 0 W/m2
05:18 23.4 °C 17.2 °C 1011.9 hPa Calm     68% 0.0 mm 0 W/m2
05:23 23.4 °C 17.2 °C 1011.5 hPa Calm     68% 0.0 mm 0 W/m2
05:28 23.3 °C 17.1 °C 1011.5 hPa Calm     68% 0.0 mm 0 W/m2
05:33 23.2 °C 17 °C 1011.9 hPa Calm     68% 0.0 mm 0 W/m2
05:38 23.2 °C 17 °C 1011.5 hPa East 1.4 km/h 1.6 km/h 68% 0.0 mm 0 W/m2
05:43 23.1 °C 17.1 °C 1011.5 hPa Calm     69% 0.0 mm 0 W/m2
05:48 23.1 °C 17.1 °C 1011.5 hPa Calm     69% 0.0 mm 0 W/m2
05:53 22.9 °C 16.9 °C 1011.9 hPa Calm     69% 0.0 mm 0 W/m2
05:58 22.9 °C 16.9 °C 1011.9 hPa Calm     69% 0.0 mm 0 W/m2
06:03 22.8 °C 17 °C 1011.9 hPa Calm     70% 0.0 mm 0 W/m2
06:08 22.7 °C 16.9 °C 1011.9 hPa Calm     70% 0.0 mm 0 W/m2
06:13 22.6 °C 16.8 °C 1011.9 hPa Calm     70% 0.0 mm 5 W/m2
06:18 22.4 °C 16.9 °C 1011.9 hPa Calm     71% 0.0 mm 7 W/m2
06:23 22.4 °C 16.9 °C 1012.2 hPa Calm     71% 0.0 mm 9 W/m2
06:28 22.4 °C 16.9 °C 1011.9 hPa Calm     71% 0.0 mm 7 W/m2
06:33 22.4 °C 16.9 °C 1011.9 hPa Calm     71% 0.0 mm 11 W/m2
06:38 22.4 °C 16.9 °C 1011.9 hPa Calm     71% 0.0 mm 16 W/m2
06:43 22.3 °C 16.8 °C 1012.2 hPa Calm     71% 0.0 mm 21 W/m2
06:48 22.3 °C 17 °C 1012.2 hPa Calm     72% 0.0 mm 23 W/m2
06:53 22.3 °C 17 °C 1012.2 hPa Calm     72% 0.0 mm 23 W/m2
06:58 22.4 °C 17.1 °C 1012.2 hPa Calm     72% 0.0 mm 28 W/m2
07:03 22.4 °C 17.1 °C 1012.2 hPa Calm     72% 0.0 mm 32 W/m2
07:08 22.5 °C 17.2 °C 1012.2 hPa Calm     72% 0.0 mm 39 W/m2
07:13 22.6 °C 17.3 °C 1012.5 hPa Calm     72% 0.0 mm 44 W/m2
07:18 22.6 °C 17.5 °C 1012.2 hPa Calm     73% 0.0 mm 51 W/m2
07:23 22.6 °C 17.3 °C 1012.2 hPa Calm     72% 0.0 mm 56 W/m2
07:28 22.7 °C 17.4 °C 1012.5 hPa Calm     72% 0.0 mm 63 W/m2
07:33 22.8 °C 17.5 °C 1012.2 hPa Calm     72% 0.0 mm 69 W/m2
07:38 22.9 °C 17.4 °C 1012.2 hPa Calm     71% 0.0 mm 65 W/m2
07:43 23.1 °C 17.8 °C 1012.2 hPa Calm     72% 0.0 mm 67 W/m2
07:48 23.2 °C 17.4 °C 1012.5 hPa Calm   1.6 km/h 70% 0.0 mm 67 W/m2
07:53 23.4 °C 17.6 °C 1012.5 hPa Calm   1.6 km/h 70% 0.0 mm 62 W/m2
07:58 23.6 °C 17.3 °C 1012.5 hPa Calm   1.6 km/h 68% 0.0 mm 74 W/m2
08:03 23.7 °C 17.4 °C 1012.5 hPa Calm   3.2 km/h 68% 0.0 mm 56 W/m2
08:08 23.8 °C 17.3 °C 1012.5 hPa East 3.2 km/h 3.2 km/h 67% 0.0 mm 49 W/m2
08:13 24 °C 17.3 °C 1012.5 hPa ENE 1.4 km/h 1.6 km/h 66% 0.0 mm 46 W/m2
08:18 24.2 °C 17.2 °C 1012.5 hPa Calm   1.6 km/h 65% 0.0 mm 54 W/m2
08:23 24.3 °C 17.3 °C 1012.5 hPa Calm   1.6 km/h 65% 0.0 mm 63 W/m2
08:28 24.5 °C 17.5 °C 1012.5 hPa Calm   3.2 km/h 65% 0.0 mm 63 W/m2
08:33 24.7 °C 17.4 °C 1012.5 hPa SE 1.4 km/h 4.8 km/h 64% 0.0 mm 63 W/m2
08:38 25 °C 17.7 °C 1012.5 hPa NE 1.4 km/h 4.8 km/h 64% 0.0 mm 65 W/m2
08:43 25.2 °C 17.7 °C 1012.9 hPa ENE 3.2 km/h 3.2 km/h 63% 0.0 mm 69 W/m2
08:48 25.4 °C 17.6 °C 1012.9 hPa NE 1.4 km/h 6.4 km/h 62% 0.0 mm 72 W/m2
08:53 25.8 °C 17.2 °C 1012.9 hPa ESE 1.4 km/h 3.2 km/h 59% 0.0 mm 151 W/m2
08:59 26 °C 17.4 °C 1012.9 hPa Calm   1.6 km/h 59% 0.0 mm 274 W/m2
09:04 26.1 °C 17.2 °C 1012.9 hPa NE 3.2 km/h 4.8 km/h 58% 0.0 mm 301 W/m2
09:09 26.2 °C 17.3 °C 1012.9 hPa NE 1.4 km/h 1.6 km/h 58% 0.0 mm 316 W/m2
09:14 26.3 °C 17.4 °C 1012.9 hPa North 1.4 km/h 1.6 km/h 58% 0.0 mm 330 W/m2
09:19 26.5 °C 17.3 °C 1012.9 hPa NE 1.4 km/h 3.2 km/h 57% 0.0 mm 320 W/m2
09:24 26.6 °C 17.1 °C 1012.9 hPa Calm   4.8 km/h 56% 0.0 mm 348 W/m2
09:29 26.7 °C 17.5 °C 1012.9 hPa Calm   1.6 km/h 57% 0.0 mm 371 W/m2
09:34 26.8 °C 17.6 °C 1012.9 hPa Calm   3.2 km/h 57% 0.0 mm 387 W/m2
09:39 26.8 °C 17.6 °C 1012.9 hPa NE 4.7 km/h 8 km/h 57% 0.0 mm 399 W/m2
09:44 26.9 °C 17.7 °C 1012.9 hPa ENE 1.4 km/h 4.8 km/h 57% 0.0 mm 98 W/m2
09:49 27.1 °C 17.8 °C 1012.9 hPa East 4.7 km/h 8 km/h 57% 0.0 mm 125 W/m2
09:54 27.2 °C 17.9 °C 1012.9 hPa East 3.2 km/h 6.4 km/h 57% 0.0 mm 441 W/m2
09:59 27.3 °C 17.8 °C 1012.9 hPa ENE 3.2 km/h 8 km/h 56% 0.0 mm 452 W/m2
10:04 27.6 °C 18 °C 1012.9 hPa ESE 3.2 km/h 6.4 km/h 56% 0.0 mm 462 W/m2
10:09 27.8 °C 17.9 °C 1012.9 hPa ESE 3.2 km/h 4.8 km/h 55% 0.0 mm 468 W/m2
10:14 27.9 °C 18 °C 1012.9 hPa East 3.2 km/h 9.7 km/h 55% 0.0 mm 482 W/m2
10:19 28.2 °C 18 °C 1012.9 hPa Calm   6.4 km/h 54% 0.0 mm 478 W/m2
10:24 28.3 °C 17.8 °C 1012.9 hPa Calm   6.4 km/h 53% 0.0 mm 483 W/m2
10:29 28.4 °C 18.2 °C 1012.9 hPa Calm   3.2 km/h 54% 0.0 mm 497 W/m2
10:34 28.6 °C 18.4 °C 1013.2 hPa NE 1.4 km/h 4.8 km/h 54% 0.0 mm 506 W/m2
10:39 28.6 °C 18.1 °C 1013.2 hPa NE 1.4 km/h 3.2 km/h 53% 0.0 mm 522 W/m2
10:44 28.8 °C 18.3 °C 1013.2 hPa Calm   1.6 km/h 53% 0.0 mm 527 W/m2
10:49 29 °C 18.1 °C 1013.2 hPa East 1.4 km/h 4.8 km/h 52% 0.0 mm 533 W/m2
10:54 29.2 °C 18 °C 1013.2 hPa ENE 1.4 km/h 4.8 km/h 51% 0.0 mm 578 W/m2
10:59 29.2 °C 18 °C 1013.2 hPa NW 3.2 km/h 4.8 km/h 51% 0.0 mm 589 W/m2
11:04 29.3 °C 18.1 °C 1013.2 hPa NNW 1.4 km/h 4.8 km/h 51% 0.0 mm 587 W/m2
11:09 29.6 °C 18.4 °C 1013.2 hPa ESE 1.4 km/h 4.8 km/h 51% 0.0 mm 577 W/m2
11:14 29.6 °C 18.4 °C 1013.2 hPa ENE 4.7 km/h 6.4 km/h 51% 0.0 mm 605 W/m2
11:19 29.7 °C 18.2 °C 1013.2 hPa ESE 3.2 km/h 6.4 km/h 50% 0.0 mm 605 W/m2
11:24 29.8 °C 18.3 °C 1013.2 hPa SE 3.2 km/h 4.8 km/h 50% 0.0 mm 594 W/m2
11:29 29.9 °C 18.3 °C 1013.2 hPa East 1.4 km/h 6.4 km/h 50% 0.0 mm 633 W/m2
11:34 30.1 °C 18.2 °C 1013.2 hPa NE 1.4 km/h 6.4 km/h 49% 0.0 mm 640 W/m2
11:39 30.2 °C 18.3 °C 1012.9 hPa ESE 3.2 km/h 9.7 km/h 49% 0.0 mm 652 W/m2
11:44 30.3 °C 18.1 °C 1012.9 hPa North 1.4 km/h 6.4 km/h 48% 0.0 mm 638 W/m2
11:49 30.4 °C 18.5 °C 1013.2 hPa NE 4.7 km/h 9.7 km/h 49% 0.0 mm 603 W/m2
11:54 30.6 °C 18.3 °C 1013.2 hPa East 4.7 km/h 6.4 km/h 48% 0.0 mm 619 W/m2
12:00 30.9 °C 18.6 °C 1012.9 hPa Calm   1.6 km/h 48% 0.0 mm 670 W/m2
12:05 31.3 °C 18.6 °C 1012.9 hPa SE 3.2 km/h 4.8 km/h 47% 0.0 mm 682 W/m2
12:10 31.6 °C 18.6 °C 1012.9 hPa SSE 1.4 km/h 1.6 km/h 46% 0.0 mm 701 W/m2
12:15 31.8 °C 18.7 °C 1012.9 hPa SE 4.7 km/h 4.8 km/h 46% 0.0 mm 703 W/m2
12:20 32 °C 18.2 °C 1012.9 hPa ESE 1.4 km/h 4.8 km/h 44% 0.0 mm 705 W/m2
12:25 32.2 °C 18.4 °C 1012.9 hPa East 4.7 km/h 6.4 km/h 44% 0.0 mm 712 W/m2
12:30 32.3 °C 18.5 °C 1012.9 hPa NE 7.9 km/h 11.3 km/h 44% 0.0 mm 715 W/m2
12:35 32.3 °C 18.1 °C 1012.9 hPa ENE 7.9 km/h 11.3 km/h 43% 0.0 mm 712 W/m2
12:40 32.4 °C 17.8 °C 1012.9 hPa SE 3.2 km/h 6.4 km/h 42% 0.0 mm 752 W/m2
12:45 32.6 °C 18 °C 1012.9 hPa SSE 4.7 km/h 11.3 km/h 42% 0.0 mm 752 W/m2
12:50 32.9 °C 18.3 °C 1012.9 hPa ESE 1.4 km/h 9.7 km/h 42% 0.0 mm 729 W/m2
12:55 33.1 °C 18.1 °C 1012.9 hPa ENE 3.2 km/h 8 km/h 41% 0.0 mm 724 W/m2
13:00 33.3 °C 18.3 °C 1012.9 hPa SSE 3.2 km/h 6.4 km/h 41% 0.0 mm 715 W/m2
13:05 33.5 °C 18.4 °C 1012.9 hPa ESE 6.4 km/h 8 km/h 41% 0.0 mm 693 W/m2
13:10 33.7 °C 19 °C 1012.9 hPa ENE 6.4 km/h 11.3 km/h 42% 0.0 mm 729 W/m2
13:15 33.6 °C 18.1 °C 1012.9 hPa SSW 4.7 km/h 4.8 km/h 40% 0.0 mm 747 W/m2
13:20 33.6 °C 18.1 °C 1012.9 hPa NNE 3.2 km/h 11.3 km/h 40% 0.0 mm 715 W/m2
13:25 33.6 °C 17.7 °C 1012.9 hPa Calm   4.8 km/h 39% 0.0 mm 763 W/m2
13:30 33.7 °C 18.2 °C 1012.5 hPa SE 6.4 km/h 6.4 km/h 40% 0.0 mm 775 W/m2
13:35 33.8 °C 17.9 °C 1012.5 hPa ESE 4.7 km/h 11.3 km/h 39% 0.0 mm 738 W/m2
13:40 33.9 °C 17.6 °C 1012.5 hPa ENE 4.7 km/h 6.4 km/h 38% 0.0 mm 784 W/m2
13:45 34.2 °C 17.9 °C 1012.5 hPa ENE 3.2 km/h 6.4 km/h 38% 0.0 mm 788 W/m2
13:50 34.3 °C 17.5 °C 1012.5 hPa East 6.4 km/h 6.4 km/h 37% 0.0 mm 795 W/m2
13:55 34.4 °C 17.2 °C 1012.5 hPa South 1.4 km/h 3.2 km/h 36% 0.0 mm 793 W/m2
14:00 34.6 °C 16.9 °C 1012.5 hPa East 3.2 km/h 4.8 km/h 35% 0.0 mm 777 W/m2
14:05 34.7 °C 17 °C 1012.5 hPa East 3.2 km/h 3.2 km/h 35% 0.0 mm 788 W/m2
14:10 34.7 °C 17.4 °C 1012.5 hPa NNW 3.2 km/h 3.2 km/h 36% 0.0 mm 795 W/m2
14:15 34.8 °C 17.5 °C 1012.2 hPa ESE 6.4 km/h 6.4 km/h 36% 0.0 mm 791 W/m2
14:20 34.9 °C 16.7 °C 1012.2 hPa West 3.2 km/h 4.8 km/h 34% 0.0 mm 780 W/m2
14:25 34.8 °C 16.6 °C 1012.2 hPa WNW 4.7 km/h 9.7 km/h 34% 0.0 mm 775 W/m2
14:30 34.6 °C 16.4 °C 1012.2 hPa ESE 3.2 km/h 6.4 km/h 34% 0.0 mm 768 W/m2
14:35 34.5 °C 16.4 °C 1012.2 hPa North 6.4 km/h 6.4 km/h 34% 0.0 mm 761 W/m2
14:40 34.6 °C 16.9 °C 1012.2 hPa SW 4.7 km/h 4.8 km/h 35% 0.0 mm 763 W/m2
14:46 34.9 °C 17.2 °C 1012.2 hPa Calm   1.6 km/h 35% 0.0 mm 775 W/m2
14:51 35.2 °C 17 °C 1012.2 hPa WSW 4.7 km/h 6.4 km/h 34% 0.0 mm 768 W/m2
14:56 35.4 °C 16.2 °C 1011.9 hPa NE 3.2 km/h 6.4 km/h 32% 0.0 mm 759 W/m2
15:01 35.3 °C 16.6 °C 1011.9 hPa SW 1.4 km/h 12.9 km/h 33% 0.0 mm 759 W/m2
15:06 35.3 °C 16.6 °C 1011.9 hPa WNW 7.9 km/h 11.3 km/h 33% 0.0 mm 745 W/m2
15:11 34.8 °C 16.1 °C 1011.9 hPa Calm   9.7 km/h 33% 0.0 mm 754 W/m2
15:16 35.1 °C 16.9 °C 1011.9 hPa WNW 3.2 km/h 6.4 km/h 34% 0.0 mm 747 W/m2
15:21 35.2 °C 16.5 °C 1011.9 hPa WNW 3.2 km/h 4.8 km/h 33% 0.0 mm 745 W/m2
15:26 35.3 °C 16.1 °C 1011.9 hPa West 9.7 km/h 12.9 km/h 32% 0.0 mm 742 W/m2
15:31 35.4 °C 16.2 °C 1011.9 hPa SSW 7.9 km/h 9.7 km/h 32% 0.0 mm 737 W/m2
15:36 35.5 °C 16.3 °C 1011.9 hPa Calm   12.9 km/h 32% 0.0 mm 728 W/m2
15:41 35.7 °C 15.9 °C 1011.9 hPa WSW 6.4 km/h 14.5 km/h 31% 0.0 mm 714 W/m2
15:46 35.5 °C 16.3 °C 1011.5 hPa WNW 3.2 km/h 8 km/h 32% 0.0 mm 659 W/m2
15:51 35.5 °C 16.3 °C 1011.5 hPa North 1.4 km/h 4.8 km/h 32% 0.0 mm 708 W/m2
15:56 35.7 °C 16.4 °C 1011.5 hPa SE 1.4 km/h 4.8 km/h 32% 0.0 mm 691 W/m2
16:01 35.7 °C 15.9 °C 1011.5 hPa NNW 4.7 km/h 8 km/h 31% 0.0 mm 682 W/m2
16:06 35.6 °C 15.9 °C 1011.5 hPa West 3.2 km/h 14.5 km/h 31% 0.0 mm 679 W/m2
16:11 35.6 °C 16.4 °C 1011.5 hPa SSW 1.4 km/h 6.4 km/h 32% 0.0 mm 677 W/m2
16:16 35.8 °C 16.5 °C 1011.2 hPa ESE 1.4 km/h 14.5 km/h 32% 0.0 mm 666 W/m2
16:21 35.9 °C 16.1 °C 1011.2 hPa NW 4.7 km/h 6.4 km/h 31% 0.0 mm 666 W/m2
16:26 35.7 °C 16.4 °C 1011.2 hPa ENE 3.2 km/h 11.3 km/h 32% 0.0 mm 657 W/m2
16:31 35.7 °C 16.4 °C 1011.2 hPa ENE 1.4 km/h 9.7 km/h 32% 0.0 mm 661 W/m2
16:36 35.8 °C 16.5 °C 1011.2 hPa WNW 3.2 km/h 6.4 km/h 32% 0.0 mm 652 W/m2
16:41 36.1 °C 16.3 °C 1010.8 hPa ENE 4.7 km/h 9.7 km/h 31% 0.0 mm 624 W/m2
16:46 36.2 °C 15.3 °C 1010.8 hPa NNW 1.4 km/h 4.8 km/h 29% 0.0 mm 621 W/m2
16:51 36.2 °C 15.3 °C 1010.8 hPa NW 9.7 km/h 12.9 km/h 29% 0.0 mm 617 W/m2
16:56 36.4 °C 16 °C 1010.8 hPa NW 4.7 km/h 4.8 km/h 30% 0.0 mm 613 W/m2
17:01 36.4 °C 15.5 °C 1010.8 hPa NW 1.4 km/h 8 km/h 29% 0.0 mm 598 W/m2
17:06 36.7 °C 15.8 °C 1010.8 hPa SE 6.4 km/h 6.4 km/h 29% 0.0 mm 580 W/m2
17:11 36.7 °C 15.8 °C 1010.8 hPa WNW 7.9 km/h 14.5 km/h 29% 0.0 mm 570 W/m2
17:16 36.7 °C 15.8 °C 1010.8 hPa SSE 4.7 km/h 6.4 km/h 29% 0.0 mm 547 W/m2
17:21 36.6 °C 15.7 °C 1010.8 hPa ENE 3.2 km/h 14.5 km/h 29% 0.0 mm 541 W/m2
17:26 36.5 °C 15.6 °C 1010.8 hPa WNW 3.2 km/h 3.2 km/h 29% 0.0 mm 520 W/m2
17:31 36.4 °C 15.5 °C 1010.5 hPa West 3.2 km/h 14.5 km/h 29% 0.0 mm 517 W/m2
17:36 36.4 °C 15.5 °C 1010.5 hPa West 6.4 km/h 9.7 km/h 29% 0.0 mm 504 W/m2
17:41 36.4 °C 15.5 °C 1010.5 hPa WNW 3.2 km/h 11.3 km/h 29% 0.0 mm 452 W/m2
17:46 36.3 °C 15.4 °C 1010.5 hPa West 3.2 km/h 4.8 km/h 29% 0.0 mm 172 W/m2
17:51 36.1 °C 15.8 °C 1010.5 hPa NNW 3.2 km/h 3.2 km/h 30% 0.0 mm 466 W/m2
17:56 36.2 °C 15.9 °C 1010.5 hPa WNW 4.7 km/h 6.4 km/h 30% 0.0 mm 466 W/m2
18:01 36.4 °C 15.5 °C 1010.5 hPa NNW 4.7 km/h 6.4 km/h 29% 0.0 mm 452 W/m2
18:06 36.6 °C 15.7 °C 1010.5 hPa WNW 3.2 km/h 9.7 km/h 29% 0.0 mm 445 W/m2
18:11 36.6 °C 15.7 °C 1010.5 hPa WNW 4.7 km/h 6.4 km/h 29% 0.0 mm 436 W/m2
18:16 36.5 °C 15.6 °C 1010.2 hPa WNW 13 km/h 12.9 km/h 29% 0.0 mm 425 W/m2
18:21 36.5 °C 15.6 °C 1010.5 hPa West 9.7 km/h 11.3 km/h 29% 0.0 mm 388 W/m2
18:26 36.4 °C 15.5 °C 1010.5 hPa WNW 6.4 km/h 6.4 km/h 29% 0.0 mm 378 W/m2
18:31 36.1 °C 15.8 °C 1010.5 hPa WNW 11.3 km/h 11.3 km/h 30% 0.0 mm 360 W/m2
18:36 36.1 °C 15.8 °C 1010.5 hPa WNW 1.4 km/h 6.4 km/h 30% 0.0 mm 346 W/m2
18:41 36.1 °C 15.2 °C 1010.5 hPa WNW 4.7 km/h 6.4 km/h 29% 0.0 mm 336 W/m2
18:46 36.1 °C 15.2 °C 1010.5 hPa WNW 1.4 km/h 6.4 km/h 29% 0.0 mm 327 W/m2
18:51 36.1 °C 15.2 °C 1010.5 hPa NW 3.2 km/h 6.4 km/h 29% 0.0 mm 316 W/m2
18:56 36 °C 15.2 °C 1010.5 hPa West 4.7 km/h 6.4 km/h 29% 0.0 mm 292 W/m2
19:01 35.9 °C 15.1 °C 1010.5 hPa NW 3.2 km/h 6.4 km/h 29% 0.0 mm 271 W/m2
19:06 35.9 °C 15.1 °C 1010.5 hPa WSW 3.2 km/h 6.4 km/h 29% 0.0 mm 248 W/m2
19:11 36 °C 15.2 °C 1010.5 hPa West 3.2 km/h 6.4 km/h 29% 0.0 mm 218 W/m2
19:16 35.9 °C 14.5 °C 1010.5 hPa NW 6.4 km/h 8 km/h 28% 0.0 mm 204 W/m2
19:21 35.7 °C 14.9 °C 1010.5 hPa West 1.4 km/h 6.4 km/h 29% 0.0 mm 188 W/m2
19:26 35.6 °C 15.3 °C 1010.5 hPa West 4.7 km/h 8 km/h 30% 0.0 mm 171 W/m2
19:31 35.4 °C 14.7 °C 1010.5 hPa WNW 4.7 km/h 11.3 km/h 29% 0.0 mm 160 W/m2
19:36 35.2 °C 15 °C 1010.5 hPa WNW 4.7 km/h 9.7 km/h 30% 0.0 mm 151 W/m2
19:41 35.1 °C 15.4 °C 1010.5 hPa West 3.2 km/h 3.2 km/h 31% 0.0 mm 142 W/m2
19:46 34.9 °C 15.3 °C 1010.5 hPa West 1.4 km/h 3.2 km/h 31% 0.0 mm 135 W/m2
19:51 34.9 °C 15.8 °C 1010.5 hPa Calm   4.8 km/h 32% 0.0 mm 127 W/m2
19:56 34.8 °C 15.7 °C 1010.5 hPa WSW 1.4 km/h 3.2 km/h 32% 0.0 mm 116 W/m2
20:01 34.7 °C 15.1 °C 1010.8 hPa NW 1.4 km/h 3.2 km/h 31% 0.0 mm 79 W/m2
20:06 34.5 °C 16.8 °C 1010.8 hPa Calm   1.6 km/h 35% 0.0 mm 90 W/m2
20:11 34.2 °C 17 °C 1010.8 hPa Calm   1.6 km/h 36% 0.0 mm 72 W/m2
20:16 33.7 °C 16.6 °C 1010.8 hPa ESE 4.7 km/h 4.8 km/h 36% 0.0 mm 53 W/m2
20:21 33.2 °C 17.4 °C 1010.8 hPa Calm   12.9 km/h 39% 0.0 mm 32 W/m2
20:26 32.8 °C 17.4 °C 1011.2 hPa ESE 4.7 km/h 8 km/h 40% 0.0 mm 21 W/m2
20:31 32.4 °C 17.5 °C 1011.2 hPa NE 3.2 km/h 4.8 km/h 41% 0.0 mm 14 W/m2
20:36 32 °C 17.5 °C 1011.2 hPa SSE 6.4 km/h 8 km/h 42% 0.0 mm 11 W/m2
20:41 31.7 °C 17.9 °C 1011.2 hPa NNE 1.4 km/h 3.2 km/h 44% 0.0 mm 9 W/m2
20:47 31.4 °C 17.7 °C 1011.2 hPa North 1.4 km/h 1.6 km/h 44% 0.0 mm 7 W/m2
20:52 31.1 °C 18.1 °C 1011.2 hPa WSW 1.4 km/h 1.6 km/h 46% 0.0 mm 5 W/m2
20:57 30.7 °C 17.8 °C 1011.2 hPa Calm   1.6 km/h 46% 0.0 mm 0 W/m2
21:02 30.4 °C 17.5 °C 1011.5 hPa Calm   3.2 km/h 46% 0.0 mm 0 W/m2
21:07 30.3 °C 18.1 °C 1011.5 hPa WNW 1.4 km/h 1.6 km/h 48% 0.0 mm 0 W/m2
21:12 30 °C 17.8 °C 1011.5 hPa Calm   1.6 km/h 48% 0.0 mm 0 W/m2
21:17 29.7 °C 18.2 °C 1011.5 hPa Calm   1.6 km/h 50% 0.0 mm 0 W/m2
21:22 29.3 °C 17.8 °C 1011.5 hPa WSW 1.4 km/h 3.2 km/h 50% 0.0 mm 0 W/m2
21:27 29 °C 17.8 °C 1011.9 hPa WSW 1.4 km/h 1.6 km/h 51% 0.0 mm 0 W/m2
21:32 28.8 °C 18 °C 1011.9 hPa WSW 1.4 km/h 3.2 km/h 52% 0.0 mm 0 W/m2
21:37 28.5 °C 18 °C 1011.9 hPa SW 1.4 km/h 3.2 km/h 53% 0.0 mm 0 W/m2
21:42 28.2 °C 18 °C 1011.9 hPa Calm   1.6 km/h 54% 0.0 mm 0 W/m2
21:47 28 °C 17.8 °C 1011.9 hPa Calm     54% 0.0 mm 0 W/m2
21:52 27.8 °C 17.9 °C 1011.9 hPa SW 1.4 km/h 1.6 km/h 55% 0.0 mm 0 W/m2
21:57 27.6 °C 17.7 °C 1011.9 hPa Calm   1.6 km/h 55% 0.0 mm 0 W/m2
22:02 27.4 °C 17.8 °C 1011.9 hPa SW 1.4 km/h 1.6 km/h 56% 0.0 mm 0 W/m2
22:07 27.2 °C 17.9 °C 1012.2 hPa Calm   1.6 km/h 57% 0.0 mm 0 W/m2
22:12 27.1 °C 17.8 °C 1011.9 hPa Calm     57% 0.0 mm 0 W/m2
22:17 26.9 °C 17.7 °C 1011.9 hPa Calm     57% 0.0 mm 0 W/m2
22:22 26.8 °C 17.6 °C 1011.9 hPa SW 1.4 km/h 3.2 km/h 57% 0.0 mm 0 W/m2
22:27 26.8 °C 17.8 °C 1012.2 hPa Calm   1.6 km/h 58% 0.0 mm 0 W/m2
22:32 26.7 °C 17.7 °C 1012.2 hPa Calm   1.6 km/h 58% 0.0 mm 0 W/m2
22:38 26.6 °C 17.7 °C 1012.2 hPa Calm     58% 0.0 mm 0 W/m2
22:43 26.4 °C 17.7 °C 1012.2 hPa Calm   1.6 km/h 59% 0.0 mm 0 W/m2
22:48 26.3 °C 17.6 °C 1012.2 hPa Calm   1.6 km/h 59% 0.0 mm 0 W/m2
22:53 26.2 °C 17.8 °C 1012.2 hPa Calm   1.6 km/h 60% 0.0 mm 0 W/m2
22:58 26 °C 17.6 °C 1012.2 hPa Calm     60% 0.0 mm 0 W/m2
23:03 25.8 °C 17.4 °C 1012.5 hPa ESE 3.2 km/h 3.2 km/h 60% 0.0 mm 0 W/m2
23:08 26 °C 17.6 °C 1012.5 hPa ENE 1.4 km/h 3.2 km/h 60% 0.0 mm 0 W/m2
23:13 26.2 °C 17.8 °C 1012.5 hPa SE 3.2 km/h 3.2 km/h 60% 0.0 mm 0 W/m2
23:18 26.3 °C 17.6 °C 1012.5 hPa SSE 1.4 km/h 3.2 km/h 59% 0.0 mm 0 W/m2
23:23 26.3 °C 17.6 °C 1012.5 hPa Calm   3.2 km/h 59% 0.0 mm 0 W/m2
23:28 26.3 °C 17.6 °C 1012.5 hPa ESE 3.2 km/h 4.8 km/h 59% 0.0 mm 0 W/m2
23:33 26.4 °C 17.5 °C 1012.9 hPa East 3.2 km/h 4.8 km/h 58% 0.0 mm 0 W/m2
23:38 26.4 °C 17.7 °C 1012.5 hPa Calm   1.6 km/h 59% 0.0 mm 0 W/m2
23:43 26.4 °C 17.5 °C 1012.9 hPa East 4.7 km/h 4.8 km/h 58% 0.0 mm 0 W/m2
23:48 26.4 °C 17.7 °C 1012.9 hPa East 1.4 km/h 3.2 km/h 59% 0.0 mm 0 W/m2
23:53 26.3 °C 17.6 °C 1012.9 hPa Calm   1.6 km/h 59% 0.0 mm 0 W/m2
23:58 26.2 °C 17.8 °C 1012.9 hPa East 1.4 km/h 1.6 km/h 60% 0.0 mm 0 W/m2
Juneau County Weather
Compliments of Weather Underground - 4 mb